TimeEDT,TemperatureF,Dew PointF,Humidity,Sea Level PressureIn,VisibilityMPH,Wind Direction,Wind SpeedMPH,Gust SpeedMPH,PrecipitationIn,Events,Conditions,WindDirDegrees,DateUTC
12:54 AM,59.0,45.0,60,30.24,10.0,Calm,Calm,-,N/A,,Clear,0,2013-09-06 04:54:00
1:54 AM,57.0,45.0,64,30.24,10.0,Calm,Calm,-,N/A,,Clear,0,2013-09-06 05:54:00
2:54 AM,54.0,46.0,75,30.24,10.0,Calm,Calm,-,N/A,,Clear,0,2013-09-06 06:54:00
3:54 AM,55.9,46.0,69,30.24,10.0,East,4.6,-,N/A,,Clear,100,2013-09-06 07:54:00
4:54 AM,55.0,46.0,72,30.25,10.0,East,3.5,-,N/A,,Clear,100,2013-09-06 08:54:00
5:54 AM,55.0,46.0,72,30.25,10.0,East,4.6,-,N/A,,Clear,100,2013-09-06 09:54:00
6:54 AM,54.0,46.0,75,30.26,10.0,East,3.5,-,N/A,,Clear,90,2013-09-06 10:54:00
7:54 AM,54.0,46.0,75,30.27,10.0,East,4.6,-,N/A,,Clear,100,2013-09-06 11:54:00
8:54 AM,59.0,48.0,67,30.26,10.0,SE,5.8,-,N/A,,Clear,140,2013-09-06 12:54:00
9:54 AM,64.0,48.9,58,30.25,10.0,SE,10.4,-,N/A,,Clear,140,2013-09-06 13:54:00
10:54 AM,69.1,48.9,49,30.24,10.0,South,8.1,-,N/A,,Clear,170,2013-09-06 14:54:00
11:54 AM,72.0,50.0,46,30.23,10.0,SE,5.8,-,N/A,,Clear,130,2013-09-06 15:54:00
12:54 PM,75.0,50.0,41,30.22,10.0,SE,4.6,-,N/A,,Clear,130,2013-09-06 16:54:00
1:54 PM,78.1,52.0,40,30.19,10.0,SSW,5.8,-,N/A,,Clear,210,2013-09-06 17:54:00
2:54 PM,79.0,55.0,44,30.16,10.0,Variable,4.6,-,N/A,,Clear,0,2013-09-06 18:54:00
3:54 PM,80.1,57.0,45,30.14,10.0,Calm,Calm,-,N/A,,Clear,0,2013-09-06 19:54:00
4:54 PM,80.1,57.9,47,30.12,10.0,SSE,4.6,-,N/A,,Clear,150,2013-09-06 20:54:00
5:54 PM,81.0,59.0,47,30.11,10.0,Calm,Calm,-,N/A,,Mostly Cloudy,0,2013-09-06 21:54:00
6:54 PM,79.0,59.0,50,30.10,10.0,South,5.8,-,N/A,,Mostly Cloudy,170,2013-09-06 22:54:00
7:54 PM,77.0,59.0,54,30.09,10.0,South,5.8,-,N/A,,Clear,190,2013-09-06 23:54:00
8:54 PM,73.9,60.1,62,30.08,10.0,South,4.6,-,N/A,,Clear,190,2013-09-07 00:54:00
9:54 PM,73.0,60.1,64,30.09,10.0,SSE,4.6,-,N/A,,Clear,160,2013-09-07 01:54:00
10:54 PM,71.1,59.0,66,30.07,10.0,South,6.9,-,N/A,,Clear,170,2013-09-07 02:54:00
11:54 PM,70.0,55.9,61,30.06,10.0,South,4.6,-,N/A,,Clear,180,2013-09-07 03:54:00